SIMPL

Last updated on Thu Jul 28 2022 00:02:07 GMT+0000 (Coordinated Universal Time)

1 42983U 98067NF 22207.34139113 .10906988 12776-4 92768-4 0 9998 2 42983 51.6099 330.8193 0006097 301.9164 58.1274 16.51583326271200

Satellite not in orbit